Regional Weather Roundup
Issued by NWS Green Bay, WI

Home | Current Version | Previous Version | Graphics & Text | Print | Product List | Glossary Off
Versions: 1 2 3 4 5 6 7 8 9 10 11 12 13 14 15 16 17 18 19 20 21 22 23 24 25 26 27 28 29 30 31 32 33 34 35 36 37 38 39 40 41 42 43 44 45 46 47 48 49 50

000
ASUS43 KGRB 180559
RWRGRB

NORTH-CENTRAL AND NORTHEAST WISCONSIN REGIONAL WEATHER ROUNDUP
NATIONAL WEATHER SERVICE GREEN BAY WI
100 AM CDT THU SEP 18 2014

WIZ005-009-010>012-018-019-180700-
NORTH CENTRAL WISCONSIN

CITY           SKY/WX    TMP DP  RH WIND       PRES   REMARKS
IRONWOOD       CLOUDY    43  41  93 E8        30.11S
MANITOWISH WTR NOT AVBL
ARBOR VITAE    NOT AVBL
EAGLE RIVER    NOT AVBL
LAND O LAKES   NOT AVBL
RHINELANDER    CLOUDY    45  41  86 NE7       30.11R
PHILLIPS       NOT AVBL
ANTIGO         NOT AVBL
TOMAHAWK       NOT AVBL
MERRILL        NOT AVBL
$$

WIZ013-073-180700-
NORTHEAST WISCONSIN

CITY           SKY/WX    TMP DP  RH WIND       PRES   REMARKS
IRON MOUNTAIN  CLOUDY    41  35  79 NE5       30.13R
MARINETTE      CLOUDY    45  36  70 NE10      30.12R
$$

WIZ017-030-035>037-045-180700-
CENTRAL WISCONSIN

CITY           SKY/WX    TMP DP  RH WIND       PRES   REMARKS
MEDFORD        NOT AVBL
WAUSAU         CLOUDY    50  47  89 E9        30.08R
MOSINEE        NOT AVBL
MARSHFIELD     CLEAR     52  50  93 E9        30.07R
WISC RAPIDS    CLEAR     52  49  89 E10       30.08R
STEVENS POINT  NOT AVBL
WAUPACA        NOT AVBL
SHAWANO        NOT AVBL
CLINTONVILLE   NOT AVBL
$$

WIZ038-039-048-051-180700-
FOX VALLEY

CITY           SKY/WX    TMP DP  RH WIND       PRES   REMARKS
NWS GREEN BAY  CLOUDY    51  46  83 NE16G25   30.10R
APPLETON       NOT AVBL
OSHKOSH        CLOUDY    53  50  89 NE10G20   30.07R
FOND DU LAC    CLOUDY    53  50  89 NE10      30.08R
$$

WIZ022-050-052-180700-
EAST CENTRAL WISCONSIN

CITY           SKY/WX    TMP DP  RH WIND       PRES   REMARKS
STURGEON BAY   CLOUDY    46  39  76 NE13      30.11S
MANITOWOC      NOT AVBL
SHEBOYGAN      CLEAR     50  47  89 N10       30.07R
$$

LMZ563-521-522-541>543-180700-
LAKESHORE

STATION/POSITION TIME  TEMP    WIND        PRES    VSBY  WAVE
                       AIR SEA DIR/SP/G                  HT/PER
                 (UTC) (F)     (DEG/KT/KT) (MB)    (MI)  (FT/S)
SHEBOYGAN LKSHOR 0500   51 49  350/ 17/ 18 1018.2R
KEWAUNEE LKSHORE 0500   51      20/ 13/ 18 1017.9R
NORTHPORT PIER   0500   47      10/ 14/ 17 1020.0R
N MID LAKE BUOY  0500   48 59   20/ 17/ 21 1019.1R         4/ 5
S GREEN BAY BUOY 0500   51     VRB 19/ 23  1020.2R
CHAMBERS ISLAND  0500   48      10/ 16/ 20 1020.0R
MENOMINEE LKSHOR 0500   46     360/ 16/ 18 1020.5R
$$


USA.gov is the U.S. government's official web portal to all federal, state and local government web resources and services.